Regional Weather Roundup
Issued by NWS

Home | Current Version | Previous Version | Graphics & Text | Print | Product List | Glossary On
Versions: 1 2 3 4 5 6 7 8 9 10 11 12 13 14 15 16 17 18 19 20 21 22 23 24 25 26 27 28 29 30 31 32 33 34 35 36 37 38 39 40 41 42 43 44 45 46 47 48 49 50
000
ASUS43 KDTX 252310
RWRMI
MICHIGAN HOURLY REGIONAL WEATHER ROUNDUP
NATIONAL WEATHER SERVICE DETROIT/PONTIAC MI
700 PM EDT SUN JUN 25 2017

NOTE: "FAIR" INDICATES FEW OR NO CLOUDS BELOW 12,000 FEET WITH NO
SIGNIFICANT WEATHER AND/OR OBSTRUCTION TO VISIBILITY.

MIZ047>049-052>055-059>063-066>070-074>076-081>083-260000-
SOUTHEAST LOWER MICHIGAN

CITY           SKY/WX    TMP DP  RH WIND       PRES   REMARKS
ADRIAN         SUNNY     71  43  36 NW12      30.05S
ALMA           CLOUDY    64  52  64 W13G20    30.01S
ANN ARBOR      PTSUNNY   68  47  46 W12       30.02S
BAD AXE        CLOUDY    61  52  72 W7        29.98S
CARO           CLOUDY    60  57  90 SW6       29.99S
DETROIT CITY   CLOUDY    69  50  50 NW9       30.01F
DETROIT        PTSUNNY   69  46  43 W15       30.02S
FLINT          CLOUDY    61  51  70 W13       30.02S
GROSSE ILE     CLOUDY    69  47  45 NW8       30.01S
HILLSDALE      PTSUNNY   66  41  39 W14       30.05S
HOWELL         CLOUDY    66  44  45 W13G20    30.02S

CITY           SKY/WX    TMP DP  RH WIND       PRES   REMARKS
JACKSON        MOSUNNY   68  45  43 W12G18    30.03F
LAMBERTVILLE   MOSUNNY   71  44  37 NW8G22    30.03S
LANSING        CLOUDY    67  47  48 W14       30.03S
LAPEER         CLOUDY    64  48  54 W13G26    30.01S
MASON          PTSUNNY   67  48  49 W13       30.03S
MONROE         MOSUNNY   71  47  42 W8G16     30.02S
MT. CLEMENS    PTSUNNY   64  51  62 NW10      29.99F
PONTIAC        PTSUNNY   63  52  67 NW14G21   30.01F
PORT HOPE        N/A     63  54  72 NW7       29.96S
PORT HURON     PTSUNNY   66  48  52 W8        30.00F
TRI CITIES     CLOUDY    63  52  67 W17       30.00R
MIDLAND        CLOUDY    64  51  63 W8        29.99S
TROY           PTSUNNY   65  53  64 W7        30.03F
SAGINAW HB     PTSUNNY   64  50  59 W13       29.99S
$$
MIZ043>046-050>051-056>058-064>065-071>073-077>080-260000-
SOUTHWEST LOWER MICHIGAN

CITY           SKY/WX    TMP DP  RH WIND       PRES   REMARKS
BATTLE CREEK   MOSUNNY   69  44  40 W15       30.05S
BENTON HARBOR  SUNNY     69  45  41 W12       30.06F
BIG RAPIDS     CLOUDY    63  48  58 NW6       30.01S
COLDWATER      MOSUNNY   69  40  34 NW14      30.05F
FREMONT        CLOUDY    64  49  58 W13       30.02S
HOLLAND        SUNNY     68  51  54 W14       30.05S
GRAND RAPIDS   PTSUNNY   68  50  52 W14       30.03S
IONIA          PTSUNNY   67  49  52 W10       30.02S
KALAMAZOO      SUNNY     69  41  36 W13G22    30.05F
LUDINGTON      CLOUDY    60  54  79 SW6       30.01F
MARSHALL       PTSUNNY   67  44  41 W9G20     30.04S
MOUNT PLEASANT PTSUNNY   63  49  61 W7        29.99F
MUSKEGON       MOSUNNY   66  51  58 SW7       30.03F
SOUTH HAVEN    SUNNY     68  51  53 SW10      30.05F
$$
MIZ016>042-260000-
NORTHERN LOWER MICHIGAN

CITY           SKY/WX    TMP DP  RH WIND       PRES   REMARKS
ALPENA         CLOUDY    60  57  89 S5        29.96F
BEAVER ISLAND  MOSUNNY   59  55  85 W12       29.98S
BELLAIRE       PTSUNNY   62  50  65 NW8       29.98S
CADILLAC       PTSUNNY   61  51  68 W10       29.99S
CHARLEVOIX     SUNNY     61  53  74 W12       30.01S
FRANKFORT      SUNNY     61  52  72 SW7       30.00S
GAYLORD        MOSUNNY   65  46  50 W12       29.96S
GRAYLING       MOSUNNY   63  51  64 W6        29.98S
HARBOR SPRINGS PTSUNNY   60  55  84 W8        29.98R
HOUGHTON LAKE  CLOUDY    61  51  70 W9        29.99S
MANISTEE       MOSUNNY   62  52  69 SW12      30.00F
OSCODA         CLOUDY    61  54  77 CALM      29.96F
PELLSTON       CLOUDY    66  50  56 NW9       29.97R
ROGERS CITY    MOSUNNY   63  53  71 S5        29.96S
TRAVERSE CITY  PTSUNNY   65  49  56 W12       29.97S
$$
MIZ007>008-015-260000-
EASTERN UPPER MICHIGAN

CITY           SKY/WX    TMP DP  RH WIND       PRES   REMARKS
KINROSS        LGT RAIN  59  52  77 W5        29.98R
MACKINAC ISLAN CLOUDY    59  55  86 W7        29.97S
NEWBERRY       CLOUDY    60  51  71 N9        29.97R
S. S. MARIE    CLOUDY    62  51  67 NW5       29.96R
MUNISING         N/A     53  50  89 N10       29.99R
$$
MIZ004>006-011>014-085-260000-
CENTRAL UPPER MICHIGAN

CITY           SKY/WX    TMP DP  RH WIND       PRES   REMARKS
MANISTIQUE     CLOUDY    61  58  89 CALM      29.96S
ESCANABA       CLOUDY    60  57  89 S6        29.98R
MENOMINEE      CLOUDY    61  54  77 CALM      30.00S
SAWYER-GWINN   PTSUNNY   57  50  77 N6        30.00R
$$
MIZ001>003-009>011-084-260000-
WESTERN UPPER MICHIGAN

CITY           SKY/WX    TMP DP  RH WIND       PRES   REMARKS
IRON MOUNTAIN  LGT RAIN  56  51  84 VRB3      30.01R
HOUGHTON       CLOUDY    57  48  72 NW7       29.98S
COPPER HARBOR    N/A     50  46  86 NE3       29.99F
IRONWOOD       LGT RAIN  51  49  92 W13G20    30.05S
$$

ABBREVIATIONS USED IN REMARKS
   TC - TEMPERATURE IN CELSIUS
  WCI - WIND CHILL INDEX
   HX - HEAT INDEX
  VSB - VISIBILITY





USA.gov is the U.S. government's official web portal to all federal, state and local government web resources and services.